Date String (YYYY-MM-DD hh:mm:ss) UTC,Instrument flags,Ambient pressure (hPa),Sample flow (lpm),Bypass flow (lpm),Sample temperature (°C),Ambient temperature (°C),ASC tube jacket temperature (°C),LED temperature (°C),Box temperature (°C),Sample RH (%),Span deviation,Mass concentration (μg/m³),Mass concentration (μg/m³),Mass concentration (μg/m³)
DateTimeUTC,F1_M11,P_M11,Q1_M11,Q2_M11,T1_M11,T2_M11,T3_M11,T4_M11,T5_M11,U1_M11,ZSPAN_M11,X0_M11,X2_M11,X1_M11
2021-09-08 07:00:00,,0832.2,4.99,0.00,29.6,26.6,00.0,38.9,31.0,16.1,0001.4,0059.47,0040.42,0037.66
2021-09-08 07:01:00,,0832.3,5.01,0.00,29.5,27.0,00.0,38.8,31.0,16.1,0001.6,0059.53,0040.54,0037.70
2021-09-08 07:02:00,,0832.3,5.00,0.00,29.5,27.3,00.0,38.8,31.1,16.1,0001.5,0059.31,0040.52,0037.71
2021-09-08 07:03:00,,0832.2,4.99,0.00,29.5,27.6,00.0,38.8,31.2,16.1,0001.8,0059.10,0040.52,0037.70
2021-09-08 07:04:00,,0832.3,4.99,0.00,29.6,27.8,00.0,38.8,31.2,16.0,0001.9,0059.78,0040.53,0037.75
2021-09-08 07:05:00,,0832.3,5.00,0.00,29.6,28.0,00.0,38.8,31.3,16.0,0001.9,0059.75,0040.52,0037.72
2021-09-08 07:06:00,,0832.2,5.00,0.00,29.6,28.2,00.0,38.8,31.3,16.0,0001.8,0059.08,0040.47,0037.69
2021-09-08 07:07:00,,0832.2,5.00,0.00,29.6,28.3,00.0,38.8,31.3,16.0,0001.7,0058.25,0040.50,0037.71
2021-09-08 07:08:00,,0832.2,5.00,0.00,29.6,28.4,00.0,38.8,31.4,16.3,0001.7,0058.44,0040.57,0037.66
2021-09-08 07:09:00,,0832.2,4.99,0.00,29.7,28.5,00.0,38.8,31.4,16.2,0001.6,0058.54,0040.55,0037.61
2021-09-08 07:10:00,,0832.3,5.01,0.00,29.7,28.5,00.0,38.8,31.4,15.9,0001.7,0058.06,0040.54,0037.58
2021-09-08 07:11:00,,0832.3,5.00,0.00,29.7,28.6,00.0,38.8,31.4,16.1,0001.7,0057.91,0040.49,0037.59
2021-09-08 07:12:00,,0832.3,5.00,0.00,29.7,28.6,00.0,38.8,31.5,16.0,0001.5,0057.77,0040.48,0037.56
2021-09-08 07:13:00,,0832.2,5.00,0.00,29.8,28.7,00.0,38.8,31.5,16.0,0001.3,0058.84,0040.51,0037.55
2021-09-08 07:14:00,,0832.2,4.99,0.00,29.8,28.7,00.0,38.8,31.5,15.8,0001.3,0058.90,0040.49,0037.55
2021-09-08 07:15:00,,0832.2,5.01,0.00,29.8,28.8,00.0,38.8,31.6,15.9,0001.1,0058.72,0040.48,0037.51
2021-09-08 07:16:00,,0832.2,5.00,0.00,29.8,28.8,00.0,38.9,31.6,15.9,0001.2,0057.76,0040.31,0037.41
2021-09-08 07:17:00,,0832.2,5.00,0.00,29.9,28.8,00.0,38.9,31.6,15.8,0001.3,0057.98,0040.30,0037.40
2021-09-08 07:18:00,,0832.1,4.99,0.00,29.9,28.9,00.0,38.9,31.6,15.9,0001.5,0058.12,0040.22,0037.32
2021-09-08 07:19:00,,0832.1,5.00,0.00,29.9,28.9,00.0,38.9,31.6,15.8,0001.6,0057.43,0040.14,0037.29
2021-09-08 07:20:00,,0832.1,5.00,0.00,29.9,28.9,00.0,38.9,31.7,15.8,0001.5,0057.30,0040.14,0037.30
2021-09-08 07:21:00,,0832.2,5.01,0.00,29.9,28.9,00.0,38.9,31.7,15.7,0001.6,0058.20,0040.11,0037.24
2021-09-08 07:22:00,,0832.2,5.00,0.00,29.9,29.0,00.0,39.0,31.7,15.8,0001.6,0058.77,0040.15,0037.26
2021-09-08 07:23:00,,0832.2,4.99,0.00,30.0,29.0,00.0,39.0,31.7,15.8,0001.7,0058.34,0039.98,0037.18
2021-09-08 07:24:00,,0832.3,5.00,0.00,30.0,29.0,00.0,39.0,31.7,15.8,0001.6,0057.30,0039.95,0037.10
2021-09-08 07:25:00,,0832.2,5.00,0.00,30.0,29.0,00.0,39.0,31.8,15.7,0001.3,0058.01,0039.89,0037.02
2021-09-08 07:26:00,,0832.3,5.00,0.00,30.0,29.0,00.0,39.0,31.7,15.8,0001.4,0057.35,0039.79,0036.97
2021-09-08 07:27:00,,0832.2,4.98,0.00,30.0,27.5,00.0,39.0,31.4,15.8,0001.6,0057.90,0039.85,0036.96
2021-09-08 07:28:00,,0832.2,5.01,0.00,29.8,26.1,00.0,39.0,31.0,15.9,0001.5,0057.92,0039.72,0036.88
2021-09-08 07:29:00,,0832.2,5.01,0.00,29.7,26.2,00.0,38.9,31.0,15.9,0001.3,0057.73,0039.72,0036.88
2021-09-08 07:30:00,,0832.2,4.99,0.00,29.6,26.6,00.0,38.9,31.1,15.9,0001.1,0057.58,0039.71,0036.89
2021-09-08 07:31:00,,0832.2,5.00,0.00,29.6,27.0,00.0,38.9,31.1,15.9,0001.2,0057.02,0039.60,0036.84
2021-09-08 07:32:00,,0832.2,5.00,0.00,29.6,27.3,00.0,38.8,31.1,15.9,0001.4,0056.44,0039.56,0036.85
2021-09-08 07:33:00,,0832.2,5.00,0.00,29.6,27.6,00.0,38.8,31.2,16.0,0001.6,0056.20,0039.53,0036.82
2021-09-08 07:34:00,,0832.2,5.00,0.00,29.6,27.9,00.0,38.8,31.2,16.0,0001.7,0056.96,0039.56,0036.82
2021-09-08 07:35:00,,0832.2,5.00,0.00,29.6,28.0,00.0,38.8,31.3,16.0,0002.1,0057.23,0039.51,0036.82
2021-09-08 07:36:00,,0832.3,4.99,0.00,29.6,28.2,00.0,38.8,31.3,16.4,0002.1,0056.76,0039.41,0036.80
2021-09-08 07:37:00,,0832.2,5.00,0.00,29.6,28.3,00.0,38.8,31.3,16.3,0002.1,0056.30,0039.38,0036.76
2021-09-08 07:38:00,,0832.2,4.99,0.00,29.7,28.4,00.0,38.8,31.4,16.1,0001.9,0056.10,0039.40,0036.79
2021-09-08 07:39:00,,0832.3,5.00,0.00,29.7,28.5,00.0,38.8,31.4,16.1,0002.0,0055.94,0039.51,0036.83
2021-09-08 07:40:00,,0832.3,5.01,0.00,29.7,28.6,00.0,38.8,31.5,16.1,0002.1,0056.80,0039.46,0036.78
2021-09-08 07:41:00,,0832.3,5.00,0.00,29.7,28.7,00.0,38.8,31.5,16.1,0002.0,0057.80,0039.38,0036.73
2021-09-08 07:42:00,,0832.3,5.00,0.00,29.8,28.8,00.0,38.8,31.5,16.1,0002.1,0057.57,0039.37,0036.72
2021-09-08 07:43:00,,0832.2,5.00,0.00,29.8,28.8,00.0,38.8,31.6,16.0,0002.1,0058.16,0039.45,0036.74
2021-09-08 07:44:00,,0832.3,4.99,0.00,29.8,28.9,00.0,38.8,31.6,16.1,0002.0,0058.43,0039.47,0036.76
2021-09-08 07:45:00,,0832.3,5.01,0.00,29.8,28.9,00.0,38.9,31.6,16.1,0002.0,0058.26,0039.49,0036.78
2021-09-08 07:46:00,,0832.2,4.99,0.00,29.9,28.9,00.0,38.9,31.6,16.0,0001.7,0058.16,0039.56,0036.80
2021-09-08 07:47:00,,0832.2,5.00,0.00,29.9,29.0,00.0,38.9,31.6,16.3,0001.6,0057.94,0039.69,0036.84
2021-09-08 07:48:00,,0832.3,5.01,0.00,29.9,29.0,00.0,38.9,31.7,16.2,0001.7,0058.37,0039.86,0036.91
2021-09-08 07:49:00,,0832.2,5.00,0.00,29.9,29.1,00.0,38.9,31.7,16.1,0001.4,0058.89,0039.92,0036.93
2021-09-08 07:50:00,,0832.3,4.99,0.00,30.0,29.1,00.0,39.0,31.8,16.0,0001.2,0059.72,0039.90,0036.93
2021-09-08 07:51:00,,0832.3,5.01,0.00,30.0,29.1,00.0,39.0,31.8,15.9,0001.2,0059.98,0039.96,0036.94
2021-09-08 07:52:00,,0832.4,4.98,0.00,30.0,29.2,00.0,39.0,31.8,15.9,0001.2,0060.42,0040.05,0036.97
2021-09-08 07:53:00,,0832.4,5.00,0.00,30.0,29.2,00.0,39.0,31.8,15.9,0001.1,0061.51,0040.19,0037.03
2021-09-08 07:54:00,,0832.3,5.00,0.00,30.0,29.2,00.0,39.0,31.9,15.8,0001.1,0060.76,0040.19,0037.00
2021-09-08 07:55:00,,0832.3,5.00,0.00,30.1,29.3,00.0,39.1,31.9,15.8,0001.3,0059.90,0040.19,0036.97
2021-09-08 07:56:00,,0832.3,5.00,0.00,30.1,29.3,00.0,39.1,31.9,16.0,0001.2,0059.60,0040.19,0036.97
2021-09-08 07:57:00,,0832.3,5.00,0.00,30.1,29.3,00.0,39.1,31.9,16.3,0001.3,0059.71,0040.20,0036.95
2021-09-08 07:58:00,,0832.3,5.00,0.00,30.1,28.9,00.0,39.1,31.8,16.5,0001.4,0059.55,0040.15,0036.94
2021-09-08 07:59:00,,0832.3,5.01,0.00,30.0,26.9,00.0,39.1,31.3,16.8,0001.4,0059.73,0040.05,0036.91
